Theta_e
289 290 290 290 289 289 289 290 291 292 293 294 294 293 292 290 289 289 289 288 288 290
286 286 287 288 289 289 289 290 289 289 289 290 291 291 290 288 287 288 288 288 288 287
285 285 285 285 284 286 288 288 288 288 288 289 288 289 288 287 287 287 286 287 287 287
284 285 284 283 283 284 284 285 286 287 286 286 287 287 287 286 287 286 286 285 285 286
284 283 282 282 282 282 283 284 284 285 286 285 285 286 285 285 286 285 284 285 284 285
281 281 281 280 280 281 281 282 282 284 284 284 285 285 285 285 285 285 285 285 285 286
280 280 280 280 280 279 279 280 281 281 283 283 283 284 284 284 285 285 286 285 285 285
281 280 279 279 278 279 278 279 280 280 280 281 282 283 283 284 284 284 284 285 285 285
280 280 279 279 279 278 278 277 278 279 279 278 281 284 286 285 284 285 284 284 284 285
278 278 279 278 278 278 277 277 276 276 277 277 278 283 284 285 283 283 284 284 284 284
277 277 277 277 277 277 277 276 275 275 276 276 277 281 283 284 282 282 282 283 284 284
275 274 274 273 274 274 275 275 274 275 274 273 274 279 280 280 278 279 280 282 283 283
272 270 269 270 270 271 271 272 273 273 273 273 272 276 277 278 275 275 277 279 281 283
268 266 266 266 266 266 266 267 267 268 269 269 270 271 275 276 274 274 275 277 279 281
Wind_Speed
8 5 6 7 5 4 4 5 7 6 5 6 6 6 6 4 5 6 7 8 7 7
8 10 9 11 9 9 7 6 7 7 7 6 7 6 6 5 6 6 6 7 7 5
6 7 8 7 8 9 10 10 8 7 6 7 6 7 6 5 5 7 5 5 7 7
6 7 6 6 5 6 6 9 9 8 7 6 7 6 6 7 7 7 7 7 8 9
5 5 5 6 6 6 6 6 8 8 7 7 6 6 7 7 7 8 8 8 9 11
5 5 5 5 6 7 7 7 6 6 6 7 7 6 6 7 8 9 10 11 10 13
5 6 6 6 6 6 7 8 8 7 7 8 7 7 7 7 9 11 11 11 11 12
10 8 7 7 6 7 7 7 8 8 8 9 9 6 6 8 9 10 12 13 13 13
10 11 12 12 12 10 9 7 7 9 9 10 10 18 20 17 10 12 12 13 13 13
8 10 11 10 11 12 13 12 13 13 12 13 13 22 25 23 12 12 13 14 14 13
9 10 11 11 13 15 14 15 15 16 16 14 14 27 28 26 17 15 16 16 16 16
9 12 13 15 17 17 16 16 15 17 19 19 19 27 28 26 17 17 19 17 17 17
11 12 15 16 17 16 16 19 16 19 19 21 21 31 35 28 14 18 16 18 18 23
11 13 15 17 15 16 17 18 19 21 20 21 21 24 36 37 19 16 16 16 14 14
Wind_Direction
6 7 19 9 1 3 356 337 341 346 306 260 241 245 241 226 216 215 229 223 221 213
7 16 23 19 8 353 351 350 339 333 324 314 273 258 248 230 238 227 222 231 230 232
14 6 15 15 11 358 344 345 346 337 332 324 310 282 272 257 240 234 232 228 233 230
13 13 357 359 360 354 338 340 337 338 332 327 313 298 287 265 251 246 241 233 227 233
8 359 342 346 339 337 326 326 324 328 328 324 318 309 289 280 261 249 249 242 237 236
331 321 321 324 328 329 319 312 311 310 313 316 311 294 289 280 275 260 249 246 239 244
315 299 300 303 295 300 305 307 303 303 299 296 291 293 288 277 275 274 265 253 246 244
323 319 306 282 270 272 278 281 279 284 290 292 289 283 272 265 263 263 267 263 255 250
310 310 311 312 312 308 297 276 281 283 269 273 278 284 286 285 269 261 261 263 259 253
278 281 285 281 285 285 291 293 291 286 276 273 272 276 282 281 273 265 259 258 259 259
285 284 290 290 288 290 289 285 287 288 288 283 281 282 281 281 278 268 260 256 254 252
309 306 306 302 299 298 296 291 288 284 283 283 283 282 283 285 282 273 267 261 255 248
322 314 305 303 303 301 297 292 291 287 283 279 281 285 286 284 278 271 266 261 255 246
311 309 302 298 297 296 294 291 290 287 285 282 279 280 282 283 276 269 268 262 258 252